Overview Statistics Trail Chart Weather Telemetry Raw packets
 

This is the latest recevied weather packets stored in our database for station/object HI3LT-13. If no packets are shown the sender has not sent any weather packets the latest 10 day(s).

<< 54 55 56 57 58 >>
Time Temp. Humidity Pressure Rain* Wind** Luminosity Snow
1787784789 29.44° C 61% 1015 hPa 0 mm - - -
1787784189 29.44° C 61% 1015 hPa 0 mm - - -
1787783588 30.56° C 55% 1014 hPa 0 mm - - -
1787782987 30.56° C 55% 1014 hPa 0 mm - - -
1787782387 25° C 58% 1014 hPa 0 mm - - -
1787781787 31.11° C 70% 1014 hPa 0 mm - - -
1787781186 31.11° C 70% 1014 hPa 0 mm - - -
1787780585 31.11° C 70% 1014 hPa 0 mm - - -
1787779984 34.44° C 56% 1014 hPa 0 mm - - -
1787779384 34.44° C 56% 1013 hPa 0 mm - - -
1787778783 35.56° C 47% 1012 hPa 0 mm - - -
1787778183 34.44° C 55% 1013 hPa 0 mm - - -
1787777582 34.44° C 55% 1013 hPa 0 mm - - -
1787776982 34.44° C 56% 1013 hPa 0 mm - - -
1787776381 34.44° C 56% 1013 hPa 0 mm - - -
1787775781 34.44° C 57% 1012 hPa 0 mm - - -
1787775180 35.56° C 55% 1013 hPa 0 mm - - -
1787774579 35.56° C 55% 1013 hPa 0 mm - - -
1787773979 35.56° C 58% 1013 hPa 0 mm - - -
1787773379 35.56° C 62% 1013 hPa 0 mm - - -
1787772778 35.56° C 67% 1013 hPa 0 mm - - -
1787772177 36.11° C 71% 1013 hPa 0 mm - - -
1787771577 36.67° C 71% 1013 hPa 0 mm - - -
1787770976 35.56° C 73% 1013 hPa 0 mm - - -
1787770375 35.56° C 73% 1013 hPa 0 mm - - -

* Rain latest hour (hover to see other rain measurements)
** Current wind speed in m/s (hover to see current wind gust speed)